Flag for Japan Weather past 2 weeks in Utsunomiya, Japan

Now
68 °F

Mild.


Feels Like: 68 °F
Forecast: 63 / 75 °F
Wind: 5 mph from East

Location: Mito

Current Time: Jul 5, 2015 at 2:16:04 PM

Latest Report: Jul 5, 2015 at 1:00 PM


Visibility: N/A

Pressure: 29.86 "Hg

Humidity: 90%

Dew point: 65 °F

Location of UtsunomiyaLocation

Historic Weather in Utsunomiya — Graph

°F

Utsunomiya temperature yesterday

Maximum temperature yesterday: 75 °F (at 1:00 PM)
Minimum temperature yesterday: 69 °F (at 12:00 AM)
Average temperature yesterday: 71 °F

Past Weeks' High & Low Weather Summary

 TemperatureHumidityPressure
High79 °F (Jun 24, 12:00 PM)99% (Jul 2, 5:00 AM)29.94 "Hg (Jul 2, 5:00 AM)
Low60 °F (Jun 30, 5:00 AM)51% (Jun 20, 2:00 PM)29.26 "Hg (Jul 1, 2:00 PM)
Average70 °F87%29.73 "Hg
* Reported Jun 20 12:00 Noon — Jul 5 12:00 Noon, Utsunomiya, Weather by CustomWeather, © 2015

Note: Actual official high and low records may vary slightly from our data, if they occured in-between our weather recording intervals... More about our weather records

Advertising

Utsunomiya weather history for previous 24 hours

 ConditionsComfort  
Time TempWeatherWind HumidityBarometerVisibility
12:00 PM
Sun, Jul 5
69 °FMild.5 mph89%29.88 "HgN/A
11:00 AM69 °FMild.6 mph92%29.87 "HgN/A
10:00 AM68 °FMild.8 mph95%29.87 "HgN/A
9:00 AM67 °FLight rain. Overcast.7 mph96%29.87 "Hg3 mi
8:00 AM67 °FMild.3 mph97%29.87 "HgN/A
7:00 AM66 °FMild.2 mph95%29.87 "HgN/A
5:00 AM67 °FMild.6 mph98%29.86 "HgN/A
4:00 AM68 °FMild.2 mph97%29.86 "HgN/A
3:00 AM68 °FSprinkles. Overcast.3 mph96%29.85 "Hg4 mi
2:00 AM69 °FMild.3 mph97%29.85 "HgN/A
1:00 AM70 °FMild.3 mph98%29.86 "HgN/A
12:00 AM69 °FMild.3 mph99%29.86 "HgN/A
11:00 PM
Sat, Jul 4
70 °FMild.5 mph98%29.88 "HgN/A
10:00 PM70 °FMild.1 mph99%29.88 "HgN/A
9:00 PM70 °FLight rain. Overcast.2 mph98%29.87 "Hg1 mi
8:00 PM70 °FMild.3 mph98%29.85 "HgN/A
7:00 PM70 °FMild.3 mph98%29.83 "HgN/A
6:00 PM71 °FMild.3 mph97%29.82 "HgN/A
5:00 PM71 °FMild.3 mph97%29.80 "HgN/A
4:00 PM72 °FMild.3 mph96%29.79 "HgN/A
3:00 PM73 °FSprinkles. Overcast.3 mph92%29.79 "Hg6 mi
2:00 PM73 °FMild.2 mph89%29.78 "HgN/A
Weather by CustomWeather, © 2015

See weather overviewHow to use our weather pages